This is the latest recevied weather packets stored in our database for station/object KF7U. If no packets are shown the sender has not sent any weather packets the latest 10 day(s).
| Time | Temp. | Humidity | Pressure | Rain* | Wind** | Luminosity | Snow |
|---|---|---|---|---|---|---|---|
| 1778126255 | 21.11° C | 38% | 1012.2 hPa | 0 mm | - | 0 W/m² | - |
| 1778125954 | 21.11° C | 37% | 1012.2 hPa | 0 mm | - | 0 W/m² | - |
| 1778125654 | 21.11° C | 37% | 1012.2 hPa | 0 mm | - | 0 W/m² | - |
| 1778125355 | 21.67° C | 37% | 1012.2 hPa | 0 mm | - | 0 W/m² | - |
| 1778125054 | 21.67° C | 36% | 1012.2 hPa | 0 mm | - | 0 W/m² | - |
| 1778124755 | 21.67° C | 34% | 1011.9 hPa | 0 mm | - | 0 W/m² | - |
| 1778124455 | 21.67° C | 36% | 1011.9 hPa | 0 mm | - | 0 W/m² | - |
| 1778124155 | 21.67° C | 35% | 1011.9 hPa | 0 mm | - | 0 W/m² | - |
| 1778123854 | 22.22° C | 34% | 1011.9 hPa | 0 mm | - | 0 W/m² | - |
| 1778123555 | 22.22° C | 33% | 1011.5 hPa | 0 mm | - | 0 W/m² | - |
| 1778123254 | 22.22° C | 33% | 1011.5 hPa | 0 mm | - | 0 W/m² | - |
| 1778122955 | 22.78° C | 33% | 1011.5 hPa | 0 mm | - | 0 W/m² | - |
| 1778122654 | 22.78° C | 31% | 1011.5 hPa | 0 mm | - | 0 W/m² | - |
| 1778122354 | 23.33° C | 31% | 1011.5 hPa | 0 mm | - | 0 W/m² | - |
| 1778122054 | 23.89° C | 28% | 1011.2 hPa | 0 mm | - | 0 W/m² | - |
| 1778121755 | 23.89° C | 27% | 1011.2 hPa | 0 mm | - | 0 W/m² | - |
| 1778121455 | 24.44° C | 27% | 1011.2 hPa | 0 mm | - | 0 W/m² | - |
| 1778121154 | 24.44° C | 26% | 1011.2 hPa | 0 mm | - | 0 W/m² | - |
| 1778120855 | 25° C | 25% | 1011.2 hPa | 0 mm | - | 1 W/m² | - |
| 1778120556 | 25° C | 25% | 1011.2 hPa | 0 mm | - | 2 W/m² | - |
| 1778120255 | 25° C | 24% | 1010.8 hPa | 0 mm | - | 5 W/m² | - |
| 1778119955 | 25.56° C | 24% | 1011.2 hPa | 0 mm | - | 9 W/m² | - |
| 1778119656 | 25.56° C | 24% | 1011.2 hPa | 0 mm | - | 14 W/m² | - |
| 1778119355 | 26.11° C | 23% | 1010.8 hPa | 0 mm | - | 20 W/m² | - |
| 1778119055 | 26.11° C | 23% | 1010.8 hPa | 0 mm | - | 26 W/m² | - |
* Rain latest hour (hover to see other rain measurements)
** Current wind speed in m/s (hover to see current wind gust speed)